SCP
0 0 0 0 0 0 0 0 0 0 0 0 0 0 0 0 -0 0 -0 0 -0 0 0 0 -0 -0 -0 -0 -0 0 0 -0 0 -0 0 0 0 0 0 0 -0 0 0 0
0 0 0 0 0 0 0 0 0 0 0 0 0 0 0 0 0 0 -0 0 -0 -0 0 0 0 0 -0 0 -0 0 -0 0 0 0 0 0 0 0 0 0 0 0 0 0
0 0 0 0 -0 0 0 0 0 0 0 0 0 0 0 0 -0 -0 -0 0 -0 0 0 -0 -0 -0 0 -0 -0 -0 -0 -0 0 0 -0 0 0 0 0 0 0 0 0 0
0 0 0 0 -0 0 0 0 0 0 0 0 0 0 0 -0 0 -0 -0 0 0 -0 -0 0 -0 0 -0 -0 -0 -0 -0 0 0 -0 0 0 0 0 0 0 0 0 0 0
0 0 0 -0 -0 0 0 0 0 0 0 0 0 0 0 -0 -0 -0 0 0 -0 -0 0 -0 -0 -0 0 0 0 -0 -0 -0 0 0 0 0 0 0 0 0 0 0 0 0
0 0 0 -0 -0 0 0 0 0 0 0 0 0 0 0 -0 -0 -0 0 -0 -0 0 0 -0 0 0 0 0 0 0 0 0 0 0 0 0 0 -0 -0 0 0 0 0 0
0 0 0 -0 -0 0 0 0 0 0 0 0 0 0 -0 -0 -0 -0 -0 0 0 0 0 0 0 0 0 0 0 0 0 0 0 0 0 0 -0 0 -0 -0 0 0 0 0
0 0 0 -0 0 0 0 0 0 0 0 0 0 -0 -0 -0 -0 0 -0 -0 0 0 -0 0 0 0 0 -0 -0 0 0 0 0 0 0 0 0 0 0 0 0 0 0 0
0 0 0 -0 -0 0 0 0 0 0 0 0 0 0 -0 0 -0 0 0 0 0 -0 0 0 0 0 0 0 0 0 0 0 0 0 0 0 0 0 -0 -0 0 0 0 0
0 0 -0 -0 -0 0 0 0 0 0 0 0 0 -0 -0 0 0 0 0 0 -0 -0 0 0 0 0 0 0 0 -0 0 0 0 0 0 0 0 0 0 0 0 0 0 0
0 0 0 -0 0 0 0 0 0 0 0 -0 -0 -0 0 0 0 0 0 -0 -0 -0 -0 0 0 0 0 -0 -0 -0 0 0 0 0 0 0 0 0 0 0 0 0 0 0
0 0 -0 -0 -0 0 0 0 0 0 0 0 0 -0 -0 -0 0 0 0 -0 -0 -0 -0 -0 -0 0 0 -0 0 -0 -0 -0 0 0 0 0 0 -0 0 0 0 0 0 0
0 0 -0 -0 -0 0 0 0 0 0 0 0 -0 0 0 0 0 0 0 0 0 0 0 0 -0 -0 -0 0 -0 -0 0 -0 -0 -0 0 -0 -0 -0 -0 0 0 0 0 0
0 0 -0 -0 0 0 0 0 0 0 -0 0 0 0 -0 0 0 0 0 0 0 0 0 0 0 0 -0 -0 -0 -0 -0 0 0 -0 0 0 0 -0 0 0 0 0 0 0
0 -0 -0 -0 0 0 0 0 0 0 0 -0 0 0 0 0 0 0 0 0 0 0 0 0 0 0 -0 0 0 -0 -0 -0 -0 -0 0 -0 -0 0 0 0 0 0 0 0
0 -0 0 0 0 0 0 0 0 0 0 -0 0 0 0 0 0 0 0 0 0 0 0 0 0 0 0 0 0 -0 0 0 -0 -0 0 0 -0 0 0 0 0 0 0 0
0 0 0 0 0 0 0 0 0 0 0 -0 0 0 0 0 0 0 0 0 0 0 0 0 0 0 0 0 0 0 0 0 0 0 0 0 0 0 0 0 -0 -0 -0 -0
0 0 0 0 0 0 0 0 0 0 0 0 -0 0 0 0 0 0 0 0 0 0 0 0 0 0 0 0 0 0 0 0 0 0 0 0 0 0 -0 -0 -0 -0 -0 -0
0 0 0 0 0 0 0 0 0 0 0 -0 0 0 0 0 0 0 0 0 0 0 0 0 0 0 0 0 0 0 0 0 0 -0 -0 -0 -0 -0 -0 -0 -0 -0 -0 -0
0 0 0 0 0 0 0 0 0 0 0 0 0 0 0 0 0 0 0 0 0 0 0 0 0 -0 0 0 -0 -0 0 -0 -0 -0 -0 -0 -0 -0 -0 -0 -0 -0 -0 -0
0 0 0 0 0 0 0 0 0 0 0 0 0 0 0 0 0 0 0 0 0 0 0 -0 -0 -0 0 0 0 -0 -0 -0 -0 -0 -0 0 0 0 0 -0 -0 -0 -0 0
0 0 0 0 0 0 0 0 0 0 0 0 0 0 0 0 0 0 0 0 0 0 0 -0 -0 -0 -0 -0 -0 -0 -0 -0 -0 0 0 0 0 0 0 0 0 0 0 0
0 0 0 0 0 0 0 0 0 0 0 0 0 0 0 0 0 0 0 0 0 0 -0 -0 0 -0 -0 -0 -0 -0 -0 -0 -0 0 0 0 0 0 0 0 0 0 0 0
0 0 0 0 0 0 0 0 0 0 0 0 0 0 0 0 0 0 0 0 0 0 -0 -0 0 0 0 0 0 0 0 0 0 0 0 0 0 0 0 0 0 0 0 0
0 0 0 0 0 0 0 0 0 0 0 0 0 0 0 0 0 0 0 0 0 0 0 0 0 -0 -0 0 0 0 0 0 0 0 0 0 0 0 0 0 0 0 0 0
0 0 0 0 0 0 0 0 0 0 0 0 0 0 0 0 0 0 0 0 0 0 0 0 0 0 0 0 0 0 0 0 0 0 0 0 0 0 0 0 0 0 0 0
0 0 0 0 0 0 0 0 0 0 0 0 0 0 0 0 0 0 0 0 0 0 0 0 0 0 0 0 0 0 0 0 0 0 0 0 0 0 0 0 0 0 0 0
Wind_Speed_500mb
53 56 54 57 53 61 61 28 5 31 40 6 2 5 11 30 38 38 21 17 29 26 10 7 6 10 8 18 12 15 9 7 9 15 4 8 6 9 11 6 8 4 8 13
50 59 51 56 47 52 60 22 17 25 19 5 4 11 16 13 9 14 9 11 15 31 13 11 8 7 13 24 16 10 6 6 10 13 1 3 5 3 7 7 5 13 10 11
53 51 51 44 49 54 50 19 6 11 7 12 6 8 13 10 18 20 17 25 25 28 19 4 13 17 12 33 26 29 9 6 8 10 16 8 6 3 5 23 6 6 11 14
50 54 48 47 56 49 43 10 10 15 10 8 9 3 9 20 12 12 26 10 12 36 17 10 6 10 24 11 12 11 5 6 7 25 17 6 10 13 14 6 3 7 8 4
52 47 46 47 52 46 34 14 16 11 10 12 4 7 10 23 14 6 18 12 40 33 23 28 39 29 22 17 7 9 8 8 11 11 12 13 9 23 16 17 10 8 10 4
46 46 44 50 48 45 29 35 39 21 5 5 2 8 12 25 30 27 27 35 39 24 27 29 54 58 51 35 24 15 7 6 9 9 4 6 10 18 13 5 13 6 14 12
46 43 43 50 44 39 38 32 29 13 12 6 14 25 34 34 27 27 56 53 10 29 75 78 57 35 32 29 29 16 6 4 5 8 7 7 6 4 3 6 13 12 8 18
45 41 44 47 42 35 38 31 25 11 9 27 24 23 20 29 35 22 32 50 44 60 38 9 14 9 6 6 11 20 22 6 6 4 3 5 4 8 6 6 8 15 15 24
43 41 42 47 41 39 36 33 25 18 15 8 22 8 14 8 9 11 15 56 47 21 6 4 5 6 6 7 4 5 14 16 6 5 5 3 6 11 6 3 1 13 14 21
42 42 44 44 40 36 33 33 21 21 20 22 13 10 8 14 11 9 14 27 19 22 7 5 5 6 3 8 8 8 4 4 2 6 5 3 9 18 2 7 9 28 23 24
41 40 43 42 37 32 30 32 23 18 17 48 34 16 22 32 24 5 20 20 7 6 10 6 7 6 8 6 6 8 8 6 5 5 6 5 35 7 9 9 19 33 35 37
39 38 40 37 36 31 34 31 25 21 25 39 57 61 51 39 37 32 7 7 7 9 5 5 6 6 7 5 7 8 7 7 5 8 6 8 15 18 19 20 18 25 33 37
39 39 35 36 34 30 28 34 25 23 22 42 25 15 13 17 24 19 7 6 6 11 17 6 5 7 4 6 4 6 12 13 5 4 5 4 12 7 30 28 27 28 25 27
38 37 32 33 29 28 26 31 18 11 14 9 14 19 29 40 19 16 21 29 24 26 27 9 5 6 8 4 3 5 4 10 10 4 6 10 11 28 30 34 27 27 24 25
39 35 32 28 27 30 29 25 19 19 15 9 26 49 20 12 14 18 18 23 26 15 6 5 5 5 5 2 4 3 6 4 4 3 6 6 11 31 31 30 29 27 29 28
39 30 30 29 24 32 21 9 14 11 8 10 8 12 15 14 17 21 18 18 15 10 8 7 10 7 7 4 2 2 6 8 7 6 27 16 14 9 31 26 26 25 25 26
38 25 30 34 30 29 19 10 5 9 12 7 10 12 7 14 16 5 6 8 9 8 7 5 7 6 6 3 4 2 12 5 2 10 16 3 18 16 23 20 19 19 20 23
34 27 33 36 26 24 33 36 25 12 7 9 3 8 9 7 6 4 5 4 7 5 5 5 4 10 4 2 7 4 7 7 4 11 12 10 12 13 16 19 19 23 28 28
26 32 33 23 13 15 17 25 23 22 16 6 5 5 7 11 3 6 4 3 3 6 1 2 5 4 5 9 9 6 2 4 4 3 8 10 12 16 19 22 26 31 33 33
27 26 12 10 12 17 14 11 10 15 13 15 6 8 5 10 8 4 6 6 1 2 5 12 5 6 5 13 9 7 3 0 5 13 9 10 15 18 22 25 26 27 27 28
26 12 12 10 10 7 10 9 8 8 3 12 8 19 4 3 2 5 6 2 2 3 7 5 6 6 8 21 15 10 10 13 19 20 19 16 14 12 12 14 18 21 24 27
17 9 7 6 7 10 7 5 4 3 9 11 9 10 9 4 3 0 3 3 5 8 6 6 7 7 19 28 22 20 25 28 27 22 15 8 5 5 7 11 15 20 26 33
23 9 8 9 8 1 14 13 7 3 11 19 15 3 8 6 4 6 5 4 8 2 6 7 8 6 35 33 29 34 35 29 22 13 6 3 2 4 10 15 21 27 34 40
14 16 11 10 7 10 10 9 8 10 9 31 19 10 5 5 4 2 4 5 5 6 3 10 6 36 44 39 39 43 38 27 16 8 6 7 9 12 17 23 30 37 42 47
15 14 11 13 15 11 6 14 10 11 24 21 11 7 3 3 4 2 4 9 8 11 9 6 14 34 46 45 48 43 32 20 12 8 9 12 15 20 24 31 38 44 50 57
13 16 3 6 2 5 11 21 14 22 26 15 6 5 5 5 5 3 10 9 9 7 7 13 13 39 44 44 45 36 25 15 9 8 12 17 22 27 32 36 42 48 54 60
13 11 22 23 6 8 13 21 20 32 25 5 6 7 11 5 3 6 8 9 7 12 28 25 18 42 41 43 42 33 21 12 6 9 16 21 26 30 37 45 50 54 54 53
Wind_Direction_500mb
326 330 329 332 332 329 338 331 308 315 299 309 344 247 211 301 296 303 275 265 272 278 287 278 262 253 252 336 335 308 222 269 270 255 201 250 183 234 184 135 220 221 156 266
327 325 328 333 331 328 330 285 268 299 292 263 267 289 281 260 285 291 302 277 289 320 315 303 238 273 287 323 343 297 314 284 307 337 44 27 147 197 161 141 106 197 147 262
325 327 332 329 329 334 333 305 287 283 235 263 234 279 267 283 279 275 269 283 288 330 310 252 285 302 311 326 299 309 308 310 311 298 309 296 273 53 245 214 192 178 214 268
326 325 325 323 329 336 335 287 252 255 275 260 230 167 267 296 311 243 305 293 315 324 307 282 256 288 298 288 299 353 51 274 284 297 290 292 42 22 342 322 72 225 241 140
320 326 320 327 333 338 338 295 306 297 274 281 287 272 262 292 296 283 301 284 309 310 295 287 294 294 292 278 314 26 337 275 357 300 349 13 65 13 18 41 355 22 338 355
316 319 319 328 333 338 328 313 307 292 306 286 211 250 257 293 311 299 283 295 305 299 282 279 279 282 273 258 275 296 295 325 348 274 32 52 24 349 13 82 31 341 24 315
315 316 320 325 330 334 324 314 315 293 278 220 257 276 282 287 285 273 293 302 265 288 308 306 289 269 262 260 252 215 231 347 257 264 14 49 220 290 298 87 62 34 345 337
316 317 318 323 331 331 323 321 321 282 274 290 282 270 266 284 289 272 277 286 302 312 311 297 331 330 340 292 206 212 204 214 268 340 60 156 55 353 349 15 60 16 356 348
315 313 313 324 330 329 314 316 314 286 290 252 301 295 276 280 298 297 261 313 327 336 281 283 281 304 301 339 3 32 185 213 288 344 70 67 260 325 240 197 353 7 356 352
308 308 311 323 329 328 317 311 312 291 268 276 301 273 273 293 294 269 304 330 335 358 330 319 322 320 313 15 19 335 352 9 158 254 115 349 355 312 360 55 288 337 336 340
303 306 307 319 320 327 314 314 305 284 278 289 274 266 270 291 289 274 309 339 355 339 1 353 342 304 2 7 355 346 22 337 12 17 60 6 342 14 58 326 318 334 340 348
295 299 297 307 315 311 320 314 308 298 270 273 287 289 284 273 271 276 295 277 299 329 332 354 319 316 341 359 4 347 38 356 357 21 76 98 48 72 30 5 339 340 335 340
293 297 292 305 305 305 305 308 299 303 287 303 276 292 277 288 302 283 269 264 293 299 316 294 280 286 331 354 17 305 0 15 41 167 72 144 68 21 11 2 351 349 350 348
286 286 289 309 309 299 298 301 276 281 282 276 284 293 295 305 298 285 260 263 286 293 294 236 256 269 19 0 332 57 336 332 335 36 52 102 107 20 355 350 349 355 8 6
282 276 284 292 294 299 294 286 261 251 252 283 293 299 292 290 287 304 273 267 277 288 283 238 250 302 325 53 50 28 348 12 9 317 69 315 303 340 346 354 356 360 0 10
280 270 298 296 270 281 284 279 225 210 294 296 299 307 284 281 290 303 274 271 274 245 273 271 289 303 324 83 208 192 9 325 267 290 318 299 311 307 355 6 9 12 14 14
275 261 293 283 273 268 228 261 208 281 307 264 296 309 267 290 307 289 286 248 267 265 274 267 305 304 21 89 201 312 338 335 149 348 358 340 4 347 8 19 24 24 26 19
265 262 283 283 276 250 247 253 238 225 282 243 243 269 323 327 304 297 301 251 253 245 284 305 7 302 51 311 238 322 346 173 273 356 15 18 7 24 35 42 49 47 46 38
253 268 274 277 241 214 224 222 247 251 217 227 193 178 261 334 314 293 292 313 330 299 106 272 4 323 231 216 198 215 168 193 278 51 42 64 68 56 58 57 55 49 43 39
253 265 251 221 205 193 217 236 216 199 207 223 216 206 283 336 347 354 328 19 166 292 267 321 83 261 240 194 195 188 180 156 144 139 118 106 90 77 63 51 44 36 30 24
226 209 215 200 226 208 208 222 212 190 248 213 224 203 233 308 71 242 13 204 315 32 263 103 316 287 227 184 177 170 162 153 148 148 137 120 96 76 57 44 32 20 8 360
191 171 205 234 188 202 210 218 315 172 225 205 179 200 208 212 244 72 313 148 40 245 320 65 295 247 169 172 169 164 156 150 146 138 130 119 89 55 31 9 354 346 344 341
179 203 186 189 191 126 185 203 257 250 197 187 178 195 175 175 216 82 65 78 228 305 43 229 230 187 175 171 171 167 163 160 157 158 169 203 256 306 324 328 330 332 330 326
161 175 211 177 242 238 194 184 185 186 169 163 155 120 159 145 76 123 85 245 56 30 8 238 249 193 177 174 176 174 171 170 176 198 240 260 271 298 312 317 319 320 321 321
175 180 212 211 224 246 234 197 153 136 150 146 125 90 150 9 85 54 75 12 269 205 232 241 307 189 180 179 179 176 173 179 200 236 268 275 282 298 306 313 318 320 320 320
197 207 178 176 112 267 195 189 168 161 159 141 113 118 77 270 146 101 221 124 233 258 225 279 292 188 185 183 178 173 177 194 224 270 300 302 302 304 309 315 317 318 320 321
200 225 214 189 239 213 185 183 177 167 156 167 124 133 197 80 41 272 191 207 232 275 303 300 227 189 187 181 177 179 185 201 250 304 315 311 305 309 315 318 318 322 323 320
Wind_Speed_850mb
53 56 54 57 53 61 61 28 5 31 40 6 2 5 11 30 38 38 21 17 29 26 10 7 6 10 8 18 12 15 9 7 9 15 4 8 6 9 11 6 8 4 8 13
50 59 51 56 47 52 60 22 17 25 19 5 4 11 16 13 9 14 9 11 15 31 13 11 8 7 13 24 16 10 6 6 10 13 1 3 5 3 7 7 5 13 10 11
53 51 51 44 49 54 50 19 6 11 7 12 6 8 13 10 18 20 17 25 25 28 19 4 13 17 12 33 26 29 9 6 8 10 16 8 6 3 5 23 6 6 11 14
50 54 48 47 56 49 43 10 10 15 10 8 9 3 9 20 12 12 26 10 12 36 17 10 6 10 24 11 12 11 5 6 7 25 17 6 10 13 14 6 3 7 8 4
52 47 46 47 52 46 34 14 16 11 10 12 4 7 10 23 14 6 18 12 40 33 23 28 39 29 22 17 7 9 8 8 11 11 12 13 9 23 16 17 10 8 10 4
46 46 44 50 48 45 29 35 39 21 5 5 2 8 12 25 30 27 27 35 39 24 27 29 54 58 51 35 24 15 7 6 9 9 4 6 10 18 13 5 13 6 14 12
46 43 43 50 44 39 38 32 29 13 12 6 14 25 34 34 27 27 56 53 10 29 75 78 57 35 32 29 29 16 6 4 5 8 7 7 6 4 3 6 13 12 8 18
45 41 44 47 42 35 38 31 25 11 9 27 24 23 20 29 35 22 32 50 44 60 38 9 14 9 6 6 11 20 22 6 6 4 3 5 4 8 6 6 8 15 15 24
43 41 42 47 41 39 36 33 25 18 15 8 22 8 14 8 9 11 15 56 47 21 6 4 5 6 6 7 4 5 14 16 6 5 5 3 6 11 6 3 1 13 14 21
42 42 44 44 40 36 33 33 21 21 20 22 13 10 8 14 11 9 14 27 19 22 7 5 5 6 3 8 8 8 4 4 2 6 5 3 9 18 2 7 9 28 23 24
41 40 43 42 37 32 30 32 23 18 17 48 34 16 22 32 24 5 20 20 7 6 10 6 7 6 8 6 6 8 8 6 5 5 6 5 35 7 9 9 19 33 35 37
39 38 40 37 36 31 34 31 25 21 25 39 57 61 51 39 37 32 7 7 7 9 5 5 6 6 7 5 7 8 7 7 5 8 6 8 15 18 19 20 18 25 33 37
39 39 35 36 34 30 28 34 25 23 22 42 25 15 13 17 24 19 7 6 6 11 17 6 5 7 4 6 4 6 12 13 5 4 5 4 12 7 30 28 27 28 25 27
38 37 32 33 29 28 26 31 18 11 14 9 14 19 29 40 19 16 21 29 24 26 27 9 5 6 8 4 3 5 4 10 10 4 6 10 11 28 30 34 27 27 24 25
39 35 32 28 27 30 29 25 19 19 15 9 26 49 20 12 14 18 18 23 26 15 6 5 5 5 5 2 4 3 6 4 4 3 6 6 11 31 31 30 29 27 29 28
39 30 30 29 24 32 21 9 14 11 8 10 8 12 15 14 17 21 18 18 15 10 8 7 10 7 7 4 2 2 6 8 7 6 27 16 14 9 31 26 26 25 25 26
38 25 30 34 30 29 19 10 5 9 12 7 10 12 7 14 16 5 6 8 9 8 7 5 7 6 6 3 4 2 12 5 2 10 16 3 18 16 23 20 19 19 20 23
34 27 33 36 26 24 33 36 25 12 7 9 3 8 9 7 6 4 5 4 7 5 5 5 4 10 4 2 7 4 7 7 4 11 12 10 12 13 16 19 19 23 28 28
26 32 33 23 13 15 17 25 23 22 16 6 5 5 7 11 3 6 4 3 3 6 1 2 5 4 5 9 9 6 2 4 4 3 8 10 12 16 19 22 26 31 33 33
27 26 12 10 12 17 14 11 10 15 13 15 6 8 5 10 8 4 6 6 1 2 5 12 5 6 5 13 9 7 3 0 5 13 9 10 15 18 22 25 26 27 27 28
26 12 12 10 10 7 10 9 8 8 3 12 8 19 4 3 2 5 6 2 2 3 7 5 6 6 8 21 15 10 10 13 19 20 19 16 14 12 12 14 18 21 24 27
17 9 7 6 7 10 7 5 4 3 9 11 9 10 9 4 3 0 3 3 5 8 6 6 7 7 19 28 22 20 25 28 27 22 15 8 5 5 7 11 15 20 26 33
23 9 8 9 8 1 14 13 7 3 11 19 15 3 8 6 4 6 5 4 8 2 6 7 8 6 35 33 29 34 35 29 22 13 6 3 2 4 10 15 21 27 34 40
14 16 11 10 7 10 10 9 8 10 9 31 19 10 5 5 4 2 4 5 5 6 3 10 6 36 44 39 39 43 38 27 16 8 6 7 9 12 17 23 30 37 42 47
15 14 11 13 15 11 6 14 10 11 24 21 11 7 3 3 4 2 4 9 8 11 9 6 14 34 46 45 48 43 32 20 12 8 9 12 15 20 24 31 38 44 50 57
13 16 3 6 2 5 11 21 14 22 26 15 6 5 5 5 5 3 10 9 9 7 7 13 13 39 44 44 45 36 25 15 9 8 12 17 22 27 32 36 42 48 54 60
13 11 22 23 6 8 13 21 20 32 25 5 6 7 11 5 3 6 8 9 7 12 28 25 18 42 41 43 42 33 21 12 6 9 16 21 26 30 37 45 50 54 54 53
Wind_Direction_850mb
326 330 329 332 332 329 338 331 308 315 299 309 344 247 211 301 296 303 275 265 272 278 287 278 262 253 252 336 335 308 222 269 270 255 201 250 183 234 184 135 220 221 156 266
327 325 328 333 331 328 330 285 268 299 292 263 267 289 281 260 285 291 302 277 289 320 315 303 238 273 287 323 343 297 314 284 307 337 44 27 147 197 161 141 106 197 147 262
325 327 332 329 329 334 333 305 287 283 235 263 234 279 267 283 279 275 269 283 288 330 310 252 285 302 311 326 299 309 308 310 311 298 309 296 273 53 245 214 192 178 214 268
326 325 325 323 329 336 335 287 252 255 275 260 230 167 267 296 311 243 305 293 315 324 307 282 256 288 298 288 299 353 51 274 284 297 290 292 42 22 342 322 72 225 241 140
320 326 320 327 333 338 338 295 306 297 274 281 287 272 262 292 296 283 301 284 309 310 295 287 294 294 292 278 314 26 337 275 357 300 349 13 65 13 18 41 355 22 338 355
316 319 319 328 333 338 328 313 307 292 306 286 211 250 257 293 311 299 283 295 305 299 282 279 279 282 273 258 275 296 295 325 348 274 32 52 24 349 13 82 31 341 24 315
315 316 320 325 330 334 324 314 315 293 278 220 257 276 282 287 285 273 293 302 265 288 308 306 289 269 262 260 252 215 231 347 257 264 14 49 220 290 298 87 62 34 345 337
316 317 318 323 331 331 323 321 321 282 274 290 282 270 266 284 289 272 277 286 302 312 311 297 331 330 340 292 206 212 204 214 268 340 60 156 55 353 349 15 60 16 356 348
315 313 313 324 330 329 314 316 314 286 290 252 301 295 276 280 298 297 261 313 327 336 281 283 281 304 301 339 3 32 185 213 288 344 70 67 260 325 240 197 353 7 356 352
308 308 311 323 329 328 317 311 312 291 268 276 301 273 273 293 294 269 304 330 335 358 330 319 322 320 313 15 19 335 352 9 158 254 115 349 355 312 360 55 288 337 336 340
303 306 307 319 320 327 314 314 305 284 278 289 274 266 270 291 289 274 309 339 355 339 1 353 342 304 2 7 355 346 22 337 12 17 60 6 342 14 58 326 318 334 340 348
295 299 297 307 315 311 320 314 308 298 270 273 287 289 284 273 271 276 295 277 299 329 332 354 319 316 341 359 4 347 38 356 357 21 76 98 48 72 30 5 339 340 335 340
293 297 292 305 305 305 305 308 299 303 287 303 276 292 277 288 302 283 269 264 293 299 316 294 280 286 331 354 17 305 0 15 41 167 72 144 68 21 11 2 351 349 350 348
286 286 289 309 309 299 298 301 276 281 282 276 284 293 295 305 298 285 260 263 286 293 294 236 256 269 19 0 332 57 336 332 335 36 52 102 107 20 355 350 349 355 8 6
282 276 284 292 294 299 294 286 261 251 252 283 293 299 292 290 287 304 273 267 277 288 283 238 250 302 325 53 50 28 348 12 9 317 69 315 303 340 346 354 356 360 0 10
280 270 298 296 270 281 284 279 225 210 294 296 299 307 284 281 290 303 274 271 274 245 273 271 289 303 324 83 208 192 9 325 267 290 318 299 311 307 355 6 9 12 14 14
275 261 293 283 273 268 228 261 208 281 307 264 296 309 267 290 307 289 286 248 267 265 274 267 305 304 21 89 201 312 338 335 149 348 358 340 4 347 8 19 24 24 26 19
265 262 283 283 276 250 247 253 238 225 282 243 243 269 323 327 304 297 301 251 253 245 284 305 7 302 51 311 238 322 346 173 273 356 15 18 7 24 35 42 49 47 46 38
253 268 274 277 241 214 224 222 247 251 217 227 193 178 261 334 314 293 292 313 330 299 106 272 4 323 231 216 198 215 168 193 278 51 42 64 68 56 58 57 55 49 43 39
253 265 251 221 205 193 217 236 216 199 207 223 216 206 283 336 347 354 328 19 166 292 267 321 83 261 240 194 195 188 180 156 144 139 118 106 90 77 63 51 44 36 30 24
226 209 215 200 226 208 208 222 212 190 248 213 224 203 233 308 71 242 13 204 315 32 263 103 316 287 227 184 177 170 162 153 148 148 137 120 96 76 57 44 32 20 8 360
191 171 205 234 188 202 210 218 315 172 225 205 179 200 208 212 244 72 313 148 40 245 320 65 295 247 169 172 169 164 156 150 146 138 130 119 89 55 31 9 354 346 344 341
179 203 186 189 191 126 185 203 257 250 197 187 178 195 175 175 216 82 65 78 228 305 43 229 230 187 175 171 171 167 163 160 157 158 169 203 256 306 324 328 330 332 330 326
161 175 211 177 242 238 194 184 185 186 169 163 155 120 159 145 76 123 85 245 56 30 8 238 249 193 177 174 176 174 171 170 176 198 240 260 271 298 312 317 319 320 321 321
175 180 212 211 224 246 234 197 153 136 150 146 125 90 150 9 85 54 75 12 269 205 232 241 307 189 180 179 179 176 173 179 200 236 268 275 282 298 306 313 318 320 320 320
197 207 178 176 112 267 195 189 168 161 159 141 113 118 77 270 146 101 221 124 233 258 225 279 292 188 185 183 178 173 177 194 224 270 300 302 302 304 309 315 317 318 320 321
200 225 214 189 239 213 185 183 177 167 156 167 124 133 197 80 41 272 191 207 232 275 303 300 227 189 187 181 177 179 185 201 250 304 315 311 305 309 315 318 318 322 323 320